S-NET B (43187 NORAD) Tracking and Keplerian Element Data

This shows tracking and keplerian element data for the satellite.

Feedback or suggestion? Click here.




ElementValue
Catalog43187
NameS-NET B
Epoch Orbit19926
Epoch Day268.47840312
Epoch Year2021
RAAN174.1884
Inclination97.6671
Eccentricity0.0012411
Argument of Perigee105.1827
Mean Anonmoly255.0768
Mean Motion14.97142057
Decay Rate8.68E-06
L11 43187U 18014H 21268.47840312 .00000868 00000-0 80080-4 0 9997
L22 43187 97.6671 174.1884 0012411 105.1827 255.0768 14.97142057199267

Live tracking and technical data element details for S-NET B (NORAD 43187). S-NET B can be tracked NOW for your location showing map with azimuth and elevation plus other details from your city location.

Track the satellite on the map from your city or location and see movement details for azimuth, elevation, latitude, longitude, range, height, and movement on the map or in text.







IsCatalogInMostPopularTable: catalog: 43187, numindb: 570
Update: records affected: 1



GetName: 43187 S-NET B

Hit Count: updated at: Mon, 27 Sep 2021 01:31:38 GMT